| time (UTC) | temp F | wind direction | speed knots | gust knots | rain 1hr in | rain 24hr in | rain mn in | humidity % | barometer mb |
| 20260505201210 | 91 | 274 | 4.3 | 5.2 | 0.00 | 0.00 | 0.00 | 29 | 1086.3 |
| 20260505200708 | 90 | 279 | 2.6 | 2.6 | 0.00 | 0.00 | 0.00 | 30 | 1086.5 |
| 20260505200204 | 91 | 257 | 3.5 | 3.5 | 0.00 | 0.00 | 0.00 | 29 | 1086.5 |
| 20260505195700 | 91 | 274 | 6.1 | 7.8 | 0.00 | 0.00 | 0.00 | 29 | 1086.3 |
| 20260505195158 | 89 | 278 | 3.5 | 5.2 | 0.00 | 0.00 | 0.00 | 30 | 1086.4 |
| 20260505194655 | 90 | 301 | 3.5 | 3.5 | 0.00 | 0.00 | 0.00 | 31 | 1086.7 |
| 20260505194151 | 90 | 290 | 3.5 | 6.1 | 0.00 | 0.00 | 0.00 | 30 | 1086.7 |
| 20260505193648 | 90 | 253 | 2.6 | 3.5 | 0.00 | 0.00 | 0.00 | 30 | 1086.5 |
| 20260505193144 | 91 | 292 | 3.5 | 5.2 | 0.00 | 0.00 | 0.00 | 32 | 1086.6 |
| 20260505192643 | 89 | 273 | 3.5 | 5.2 | 0.00 | 0.00 | 0.00 | 32 | 1086.7 |
| 20260505192141 | 89 | 294 | 3.5 | 3.5 | 0.00 | 0.00 | 0.00 | 33 | 1086.6 |
| 20260505191639 | 89 | 248 | 5.2 | 7.0 | 0.00 | 0.00 | 0.00 | 33 | 1086.8 |
| 20260505191137 | 89 | 324 | 2.6 | 3.5 | 0.00 | 0.00 | 0.00 | 35 | 1086.8 |
| 20260505190632 | 89 | 276 | 8.7 | 11.3 | 0.00 | 0.00 | 0.00 | 35 | 1086.7 |
| 20260505190127 | 89 | 285 | 4.3 | 6.1 | 0.00 | 0.00 | 0.00 | 37 | 1087.0 |
| 20260505185624 | 88 | 310 | 3.5 | 5.2 | 0.00 | 0.00 | 0.00 | 39 | 1087.0 |
| 20260505185120 | 88 | 270 | 6.1 | 7.8 | 0.00 | 0.00 | 0.00 | 37 | 1086.8 |
| 20260505184617 | 88 | 296 | 5.2 | 7.0 | 0.00 | 0.00 | 0.00 | 39 | 1087.0 |
| 20260505184114 | 88 | 258 | 3.5 | 3.5 | 0.00 | 0.00 | 0.00 | 40 | 1087.4 |
| 20260505183611 | 87 | 319 | 4.3 | 5.2 | 0.00 | 0.00 | 0.00 | 39 | 1087.3 |
| 20260505183109 | 87 | 335 | 3.5 | 6.1 | 0.00 | 0.00 | 0.00 | 42 | 1087.4 |
| 20260505182604 | 87 | 313 | 5.2 | 6.1 | 0.00 | 0.00 | 0.00 | 40 | 1087.4 |
| 20260505182101 | 87 | 284 | 1.7 | 2.6 | 0.00 | 0.00 | 0.00 | 42 | 1087.5 |
| 20260505181558 | 87 | 243 | 5.2 | 5.2 | 0.00 | 0.00 | 0.00 | 41 | 1087.6 |
| 20260505181055 | 87 | 276 | 3.5 | 3.5 | 0.00 | 0.00 | 0.00 | 42 | 1087.5 |
| 20260505180550 | 86 | 262 | 5.2 | 6.1 | 0.00 | 0.00 | 0.00 | 43 | 1087.7 |
| 20260505180049 | 85 | 293 | 4.3 | 5.2 | 0.00 | 0.00 | 0.00 | 42 | 1087.6 |
| 20260505175549 | 86 | 273 | 4.3 | 5.2 | 0.00 | 0.00 | 0.00 | 45 | 1087.7 |
| 20260505175046 | 85 | 279 | 3.5 | 6.1 | 0.00 | 0.00 | 0.00 | 45 | 1087.5 |
| 20260505174543 | 85 | 236 | 4.3 | 5.2 | 0.00 | 0.00 | 0.00 | 46 | 1087.8 |
| 20260505174039 | 85 | 305 | 5.2 | 7.0 | 0.00 | 0.00 | 0.00 | 44 | 1087.6 |
| 20260505173536 | 84 | 271 | 6.1 | 7.0 | 0.00 | 0.00 | 0.00 | 47 | 1087.7 |
| 20260505173033 | 84 | 268 | 5.2 | 7.0 | 0.00 | 0.00 | 0.00 | 49 | 1087.9 |
| 20260505172531 | 84 | 206 | 1.7 | 1.7 | 0.00 | 0.00 | 0.00 | 52 | 1087.5 |
| 20260505172027 | 83 | 256 | 1.7 | 2.6 | 0.00 | 0.00 | 0.00 | 52 | 1087.8 |
| 20260505171522 | 82 | 272 | 2.6 | 2.6 | 0.00 | 0.00 | 0.00 | 56 | 1087.8 |
| 20260505171019 | 82 | 239 | 6.1 | 7.0 | 0.00 | 0.00 | 0.00 | 56 | 1087.6 |
| 20260505170516 | 82 | 252 | 5.2 | 6.1 | 0.00 | 0.00 | 0.00 | 59 | 1087.9 |
| 20260505170013 | 82 | 250 | 1.7 | 1.7 | 0.00 | 0.00 | 0.00 | 63 | 1087.9 |
| 20260505165508 | 81 | 205 | 1.7 | 2.6 | 0.00 | 0.00 | 0.00 | 65 | 1088.0 |
| 20260505165004 | 80 | 258 | 4.3 | 5.2 | 0.00 | 0.00 | 0.00 | 66 | 1087.8 |
| 20260505164500 | 79 | 178 | 4.3 | 6.1 | 0.00 | 0.00 | 0.00 | 67 | 1088.1 |
| 20260505163958 | 79 | 218 | 0.9 | 1.7 | 0.00 | 0.00 | 0.00 | 70 | 1088.0 |
| 20260505163456 | 78 | 232 | 0.9 | 0.9 | 0.00 | 0.00 | 0.00 | 71 | 1088.0 |
| 20260505162955 | 78 | 248 | 2.6 | 2.6 | 0.00 | 0.00 | 0.00 | 72 | 1088.0 |
| 20260505162451 | 78 | 258 | 3.5 | 3.5 | 0.00 | 0.00 | 0.00 | 73 | 1087.9 |
| 20260505161947 | 77 | 269 | 5.2 | 6.1 | 0.00 | 0.00 | 0.00 | 74 | 1087.9 |
| 20260505161444 | 77 | 201 | 2.6 | 5.2 | 0.00 | 0.00 | 0.00 | 75 | 1088.0 |
| 20260505160942 | 77 | 213 | 2.6 | 2.6 | 0.00 | 0.00 | 0.00 | 76 | 1088.0 |
| 20260505160440 | 77 | 214 | 2.6 | 3.5 | 0.00 | 0.00 | 0.00 | 77 | 1088.2 |
| 20260505152916 | 75 | 213 | 2.6 | 5.2 | 0.00 | 0.00 | 0.00 | 81 | 1087.7 |
| 20260505152414 | 75 | 211 | 0.9 | 0.9 | 0.00 | 0.00 | 0.00 | 82 | 1087.9 |
| 20260505151913 | 74 | 229 | 2.6 | 3.5 | 0.00 | 0.00 | 0.00 | 82 | 1087.8 |
| 20260505151410 | 73 | 201 | 3.5 | 5.2 | 0.00 | 0.00 | 0.00 | 83 | 1087.7 |
| 20260505150908 | 73 | 228 | 0.9 | 0.9 | 0.00 | 0.00 | 0.00 | 84 | 1087.5 |
| 20260505150405 | 73 | 181 | 3.5 | 5.2 | 0.00 | 0.00 | 0.00 | 84 | 1087.6 |
| 20260505140334 | 69 | 177 | 5.2 | 7.8 | 0.00 | 0.00 | 0.00 | 89 | 1087.6 |
| 20260505130257 | 67 | 186 | 7.0 | 9.6 | 0.00 | 0.00 | 0.00 | 93 | 1087.1 |
| 20260505124748 | 67 | 197 | 3.5 | 5.2 | 0.00 | 0.00 | 0.00 | 93 | 1087.3 |
| 20260505124245 | 67 | 193 | 5.2 | 7.8 | 0.00 | 0.00 | 0.00 | 93 | 1087.4 |
| 20260505123740 | 67 | 200 | 4.3 | 5.2 | 0.00 | 0.00 | 0.00 | 94 | 1086.9 |
| 20260505123237 | 66 | 161 | 2.6 | 3.5 | 0.00 | 0.00 | 0.00 | 94 | 1087.4 |
| 20260505122734 | 66 | 195 | 3.5 | 5.2 | 0.00 | 0.00 | 0.00 | 94 | 1087.0 |
| 20260505122231 | 66 | 185 | 2.6 | 3.5 | 0.00 | 0.00 | 0.00 | 94 | 1086.8 |
| 20260505121728 | 66 | 177 | 2.6 | 3.5 | 0.00 | 0.00 | 0.00 | 94 | 1086.8 |
| 20260505121224 | 66 | 215 | 4.3 | 6.1 | 0.00 | 0.00 | 0.00 | 93 | 1086.5 |
| 20260505120721 | 66 | 165 | 3.5 | 6.1 | 0.00 | 0.00 | 0.00 | 93 | 1086.6 |
| 20260505120217 | 66 | 190 | 3.5 | 5.2 | 0.00 | 0.00 | 0.00 | 93 | 1086.6 |
| 20260505115715 | 66 | 177 | 3.5 | 3.5 | 0.00 | 0.00 | 0.00 | 93 | 1086.4 |
| 20260505115213 | 66 | 176 | 2.6 | 3.5 | 0.00 | 0.00 | 0.00 | 93 | 1086.5 |
| 20260505114711 | 66 | 183 | 4.3 | 6.1 | 0.00 | 0.00 | 0.00 | 92 | 1086.4 |
| 20260505114206 | 66 | 176 | 3.5 | 5.2 | 0.00 | 0.00 | 0.00 | 93 | 1086.6 |
| 20260505113703 | 66 | 214 | 2.6 | 3.5 | 0.00 | 0.00 | 0.00 | 92 | 1086.3 |
| 20260505113200 | 65 | 166 | 1.7 | 2.6 | 0.00 | 0.00 | 0.00 | 92 | 1086.1 |
| 20260505112656 | 65 | 182 | 1.7 | 1.7 | 0.00 | 0.00 | 0.00 | 92 | 1086.4 |
| 20260505112154 | 65 | 177 | 3.5 | 5.2 | 0.00 | 0.00 | 0.00 | 92 | 1086.1 |
| 20260505111653 | 65 | 191 | 3.5 | 3.5 | 0.00 | 0.00 | 0.00 | 92 | 1086.2 |
| 20260505111149 | 65 | 187 | 3.5 | 5.2 | 0.00 | 0.00 | 0.00 | 92 | 1085.9 |
| 20260505110646 | 66 | 145 | 3.5 | 5.2 | 0.00 | 0.00 | 0.00 | 91 | 1086.0 |
| 20260505110143 | 66 | 158 | 2.6 | 2.6 | 0.00 | 0.00 | 0.00 | 91 | 1086.1 |
| 20260505102119 | 66 | 160 | 5.2 | 7.0 | 0.00 | 0.00 | 0.00 | 90 | 1085.7 |
| 20260505101617 | 66 | 160 | 3.5 | 5.2 | 0.00 | 0.00 | 0.00 | 90 | 1085.8 |
| 20260505101113 | 66 | 175 | 4.3 | 6.1 | 0.00 | 0.00 | 0.00 | 89 | 1085.8 |
| 20260505100610 | 66 | 203 | 2.6 | 2.6 | 0.00 | 0.00 | 0.00 | 89 | 1085.7 |
| 20260505100107 | 66 | 143 | 2.6 | 2.6 | 0.00 | 0.00 | 0.00 | 89 | 1085.7 |
| 20260505095603 | 66 | 137 | 5.2 | 7.0 | 0.00 | 0.00 | 0.00 | 89 | 1086.0 |
| 20260505095059 | 66 | 155 | 4.3 | 6.1 | 0.00 | 0.00 | 0.00 | 89 | 1085.8 |
| 20260505094556 | 66 | 177 | 3.5 | 5.2 | 0.00 | 0.00 | 0.00 | 88 | 1085.9 |
| 20260505094052 | 66 | 189 | 4.3 | 6.1 | 0.00 | 0.00 | 0.00 | 88 | 1085.9 |
| 20260505093549 | 67 | 164 | 2.6 | 2.6 | 0.00 | 0.00 | 0.00 | 88 | 1085.9 |
| 20260505093046 | 67 | 167 | 3.5 | 3.5 | 0.00 | 0.00 | 0.00 | 87 | 1085.8 |
| 20260505092544 | 67 | 156 | 5.2 | 7.8 | 0.00 | 0.00 | 0.00 | 87 | 1085.9 |
| 20260505092042 | 67 | 183 | 4.3 | 6.1 | 0.00 | 0.00 | 0.00 | 87 | 1085.7 |
| 20260505091538 | 67 | 148 | 5.2 | 9.6 | 0.00 | 0.00 | 0.00 | 86 | 1085.7 |
| 20260505091037 | 67 | 206 | 5.2 | 8.7 | 0.00 | 0.00 | 0.00 | 87 | 1085.7 |
| 20260505090534 | 67 | 182 | 5.2 | 6.1 | 0.00 | 0.00 | 0.00 | 86 | 1085.9 |
| 20260505090032 | 67 | 181 | 6.1 | 8.7 | 0.00 | 0.00 | 0.00 | 86 | 1086.2 |
| 20260505085530 | 67 | 159 | 3.5 | 6.1 | 0.00 | 0.00 | 0.00 | 86 | 1086.1 |
| 20260505085028 | 67 | 198 | 5.2 | 7.0 | 0.00 | 0.00 | 0.00 | 86 | 1086.3 |
| 20260505084525 | 67 | 190 | 6.1 | 7.8 | 0.00 | 0.00 | 0.00 | 86 | 1086.3 |
| 20260505084023 | 67 | 179 | 3.5 | 5.2 | 0.00 | 0.00 | 0.00 | 86 | 1086.0 |
| 20260505083520 | 67 | 176 | 3.5 | 5.2 | 0.00 | 0.00 | 0.00 | 86 | 1086.3 |
| 20260505083017 | 68 | 185 | 3.5 | 5.2 | 0.00 | 0.00 | 0.00 | 85 | 1086.1 |
| 20260505082512 | 68 | 182 | 4.3 | 5.2 | 0.00 | 0.00 | 0.00 | 85 | 1086.1 |
| 20260505082009 | 68 | 181 | 1.7 | 2.6 | 0.00 | 0.00 | 0.00 | 85 | 1086.1 |
| 20260505081506 | 68 | 157 | 5.2 | 6.1 | 0.00 | 0.00 | 0.00 | 85 | 1086.4 |
| 20260505081003 | 68 | 197 | 4.3 | 6.1 | 0.00 | 0.00 | 0.00 | 85 | 1086.3 |
| 20260505080459 | 68 | 186 | 7.0 | 9.6 | 0.00 | 0.00 | 0.00 | 85 | 1086.2 |
| 20260505075955 | 68 | 168 | 4.3 | 5.2 | 0.00 | 0.00 | 0.00 | 84 | 1086.3 |
| 20260505075452 | 68 | 165 | 3.5 | 5.2 | 0.00 | 0.00 | 0.00 | 84 | 1086.4 |
| 20260505074949 | 68 | 192 | 5.2 | 6.1 | 0.00 | 0.00 | 0.00 | 84 | 1086.4 |
| 20260505074446 | 68 | 203 | 7.0 | 8.7 | 0.00 | 0.00 | 0.00 | 84 | 1086.5 |
| 20260505073943 | 68 | 213 | 5.2 | 7.0 | 0.00 | 0.00 | 0.00 | 84 | 1086.5 |
| 20260505073441 | 68 | 176 | 4.3 | 5.2 | 0.00 | 0.00 | 0.00 | 83 | 1086.6 |
| 20260505072938 | 68 | 213 | 3.5 | 7.8 | 0.00 | 0.00 | 0.00 | 84 | 1086.5 |
| 20260505072434 | 68 | 172 | 2.6 | 2.6 | 0.00 | 0.00 | 0.00 | 83 | 1086.6 |
| 20260505071930 | 68 | 178 | 3.5 | 6.1 | 0.00 | 0.00 | 0.00 | 83 | 1086.6 |
| 20260505071426 | 69 | 136 | 4.3 | 5.2 | 0.00 | 0.00 | 0.00 | 83 | 1086.9 |
| 20260505070925 | 69 | 206 | 3.5 | 5.2 | 0.00 | 0.00 | 0.00 | 82 | 1086.9 |
| 20260505070421 | 69 | 171 | 2.6 | 3.5 | 0.00 | 0.00 | 0.00 | 82 | 1086.9 |
| 20260505065916 | 69 | 135 | 5.2 | 7.8 | 0.00 | 0.00 | 0.00 | 82 | 1086.7 |
| 20260505065413 | 69 | 200 | 6.1 | 7.0 | 0.00 | 0.00 | 0.00 | 82 | 1086.9 |
| 20260505064910 | 69 | 189 | 5.2 | 8.7 | 0.00 | 0.00 | 0.00 | 82 | 1086.9 |
| 20260505064407 | 69 | 142 | 4.3 | 7.0 | 0.00 | 0.00 | 0.00 | 82 | 1086.9 |
| 20260505063906 | 69 | 184 | 5.2 | 6.1 | 0.00 | 0.00 | 0.00 | 81 | 1087.0 |
| 20260505063402 | 69 | 173 | 6.1 | 7.0 | 0.00 | 0.00 | 0.00 | 81 | 1087.1 |
| 20260505062858 | 69 | 164 | 5.2 | 7.0 | 0.00 | 0.00 | 0.00 | 81 | 1087.1 |
| 20260505062355 | 69 | 164 | 5.2 | 7.0 | 0.00 | 0.00 | 0.00 | 81 | 1087.4 |
| 20260505061852 | 69 | 150 | 5.2 | 7.0 | 0.00 | 0.00 | 0.00 | 81 | 1087.3 |
| 20260505061351 | 70 | 174 | 5.2 | 7.0 | 0.00 | 0.00 | 0.00 | 80 | 1087.0 |
| 20260505060848 | 70 | 205 | 4.3 | 5.2 | 0.00 | 0.00 | 0.00 | 80 | 1087.5 |
| 20260505060344 | 70 | 187 | 3.5 | 5.2 | 0.00 | 0.00 | 0.00 | 80 | 1087.0 |
| 20260505055840 | 70 | 168 | 5.2 | 7.8 | 0.00 | 0.00 | 0.00 | 80 | 1087.4 |
| 20260505055336 | 70 | 207 | 7.0 | 7.8 | 0.00 | 0.00 | 0.00 | 80 | 1087.5 |
| 20260505054834 | 70 | 192 | 6.1 | 8.7 | 0.00 | 0.00 | 0.00 | 79 | 1087.4 |
| 20260505054331 | 70 | 213 | 6.1 | 9.6 | 0.00 | 0.00 | 0.00 | 79 | 1087.6 |
| 20260505053829 | 70 | 182 | 3.5 | 5.2 | 0.00 | 0.00 | 0.00 | 79 | 1087.6 |
| 20260505053325 | 71 | 172 | 5.2 | 7.8 | 0.00 | 0.00 | 0.00 | 78 | 1087.5 |
| 20260505052822 | 71 | 215 | 4.3 | 6.1 | 0.00 | 0.00 | 0.00 | 78 | 1087.8 |
| 20260505052319 | 71 | 166 | 5.2 | 6.1 | 0.00 | 0.00 | 0.00 | 78 | 1087.5 |
| 20260505051817 | 71 | 204 | 4.3 | 6.1 | 0.00 | 0.00 | 0.00 | 77 | 1087.6 |
| 20260505051314 | 71 | 195 | 2.6 | 2.6 | 0.00 | 0.00 | 0.00 | 77 | 1087.7 |
| 20260505050812 | 71 | 210 | 8.7 | 12.2 | 0.00 | 0.00 | 0.00 | 76 | 1087.5 |
| 20260505050310 | 71 | 179 | 1.7 | 2.6 | 0.00 | 0.00 | 0.00 | 77 | 1087.5 |
| 20260505041740 | 73 | 171 | 6.1 | 8.7 | 0.00 | 0.00 | 0.00 | 74 | 1087.8 |
| 20260505041237 | 73 | 190 | 5.2 | 7.8 | 0.00 | 0.00 | 0.00 | 74 | 1087.5 |
| 20260505040735 | 73 | 187 | 4.3 | 7.8 | 0.00 | 0.00 | 0.00 | 74 | 1087.5 |
| 20260505040232 | 73 | 170 | 5.2 | 7.0 | 0.00 | 0.00 | 0.00 | 74 | 1087.6 |
| 20260505035729 | 73 | 165 | 2.6 | 3.5 | 0.00 | 0.00 | 0.00 | 74 | 1087.4 |
| 20260505035224 | 73 | 179 | 4.3 | 7.8 | 0.00 | 0.00 | 0.00 | 73 | 1087.6 |
| 20260505034721 | 73 | 218 | 7.0 | 8.7 | 0.00 | 0.00 | 0.00 | 73 | 1087.4 |
| 20260505034218 | 73 | 199 | 7.0 | 9.6 | 0.00 | 0.00 | 0.00 | 73 | 1087.4 |
| 20260505033715 | 73 | 182 | 6.1 | 7.8 | 0.00 | 0.00 | 0.00 | 72 | 1087.4 |
| 20260505033213 | 73 | 161 | 5.2 | 7.0 | 0.00 | 0.00 | 0.00 | 72 | 1087.0 |
| 20260505032711 | 73 | 152 | 2.6 | 2.6 | 0.00 | 0.00 | 0.00 | 71 | 1086.9 |
| 20260505032206 | 74 | 196 | 9.6 | 11.3 | 0.00 | 0.00 | 0.00 | 70 | 1087.0 |
| 20260505031704 | 74 | 215 | 3.5 | 5.2 | 0.00 | 0.00 | 0.00 | 70 | 1086.9 |
| 20260505031200 | 74 | 195 | 5.2 | 7.0 | 0.00 | 0.00 | 0.00 | 69 | 1087.1 |
| 20260505030657 | 74 | 193 | 6.1 | 7.8 | 0.00 | 0.00 | 0.00 | 69 | 1086.9 |
| 20260505030153 | 75 | 224 | 7.0 | 7.8 | 0.00 | 0.00 | 0.00 | 68 | 1086.8 |
| 20260505025649 | 75 | 138 | 3.5 | 3.5 | 0.00 | 0.00 | 0.00 | 68 | 1086.7 |
| 20260505025148 | 75 | 163 | 4.3 | 6.1 | 0.00 | 0.00 | 0.00 | 67 | 1086.7 |
| 20260505024645 | 75 | 160 | 5.2 | 7.8 | 0.00 | 0.00 | 0.00 | 67 | 1086.6 |
| 20260505024142 | 75 | 185 | 6.1 | 8.7 | 0.00 | 0.00 | 0.00 | 66 | 1086.8 |
| 20260505023639 | 75 | 188 | 7.0 | 8.7 | 0.00 | 0.00 | 0.00 | 65 | 1086.5 |
| 20260505023137 | 75 | 173 | 4.3 | 6.1 | 0.00 | 0.00 | 0.00 | 65 | 1086.6 |
| 20260505022634 | 76 | 198 | 6.1 | 7.8 | 0.00 | 0.00 | 0.00 | 64 | 1086.5 |
| 20260505022131 | 76 | 184 | 3.5 | 3.5 | 0.00 | 0.00 | 0.00 | 64 | 1086.6 |
| 20260505021627 | 76 | 214 | 7.0 | 7.8 | 0.00 | 0.00 | 0.00 | 63 | 1086.5 |
| 20260505021124 | 77 | 177 | 3.5 | 3.5 | 0.00 | 0.00 | 0.00 | 62 | 1086.4 |
| 20260505020620 | 77 | 158 | 4.3 | 5.2 | 0.00 | 0.00 | 0.00 | 62 | 1086.7 |
| 20260505020116 | 77 | 192 | 5.2 | 6.1 | 0.00 | 0.00 | 0.00 | 61 | 1086.6 |
| 20260505015613 | 77 | 165 | 1.7 | 3.5 | 0.00 | 0.00 | 0.00 | 62 | 1086.3 |
| 20260505015110 | 77 | 180 | 3.5 | 3.5 | 0.00 | 0.00 | 0.00 | 61 | 1086.4 |
| 20260505014607 | 77 | 203 | 3.5 | 3.5 | 0.00 | 0.00 | 0.00 | 60 | 1086.7 |
| 20260505014104 | 78 | 205 | 7.8 | 9.6 | 0.00 | 0.00 | 0.00 | 60 | 1086.7 |
| 20260505013601 | 78 | 212 | 5.2 | 7.0 | 0.00 | 0.00 | 0.00 | 60 | 1086.3 |
| 20260505013058 | 78 | 213 | 5.2 | 8.7 | 0.00 | 0.00 | 0.00 | 59 | 1086.5 |
| 20260505012556 | 78 | 232 | 7.0 | 7.8 | 0.00 | 0.00 | 0.00 | 58 | 1086.4 |
| 20260505012053 | 78 | 194 | 3.5 | 7.0 | 0.00 | 0.00 | 0.00 | 58 | 1086.3 |
| 20260505011548 | 79 | 180 | 3.5 | 3.5 | 0.00 | 0.00 | 0.00 | 58 | 1086.5 |
| 20260505011046 | 79 | 212 | 3.5 | 6.1 | 0.00 | 0.00 | 0.00 | 57 | 1086.3 |
| 20260505010541 | 80 | 187 | 3.5 | 3.5 | 0.00 | 0.00 | 0.00 | 56 | 1086.6 |
| 20260505010038 | 80 | 158 | 2.6 | 5.2 | 0.00 | 0.00 | 0.00 | 55 | 1086.5 |
| 20260505005534 | 80 | 210 | 0.9 | 1.7 | 0.00 | 0.00 | 0.00 | 54 | 1086.4 |
| 20260505005032 | 80 | 222 | 4.3 | 6.1 | 0.00 | 0.00 | 0.00 | 53 | 1086.8 |
| 20260505004529 | 81 | 196 | 2.6 | 3.5 | 0.00 | 0.00 | 0.00 | 54 | 1086.5 |
| 20260505004025 | 81 | 193 | 3.5 | 3.5 | 0.00 | 0.00 | 0.00 | 54 | 1086.4 |
| 20260505003523 | 81 | 198 | 6.1 | 8.7 | 0.00 | 0.00 | 0.00 | 53 | 1086.5 |
| 20260505003020 | 81 | 185 | 4.3 | 6.1 | 0.00 | 0.00 | 0.00 | 52 | 1086.4 |
| 20260505002515 | 81 | 209 | 1.7 | 2.6 | 0.00 | 0.00 | 0.00 | 53 | 1086.4 |
| 20260505002014 | 82 | 237 | 4.3 | 8.7 | 0.00 | 0.00 | 0.00 | 52 | 1086.4 |
| 20260505001511 | 82 | 224 | 0.9 | 0.9 | 0.00 | 0.00 | 0.00 | 51 | 1086.5 |
| 20260505001008 | 82 | 219 | 4.3 | 6.1 | 0.00 | 0.00 | 0.00 | 51 | 1086.4 |
| 20260505000506 | 83 | 227 | 1.7 | 1.7 | 0.00 | 0.00 | 0.00 | 51 | 1086.6 |
| 20260505000003 | 83 | 182 | 8.7 | 12.2 | 0.00 | 0.00 | 0.00 | 50 | 1086.7 |
| 20260504235500 | 83 | 210 | 5.2 | 7.0 | 0.00 | 0.00 | 0.00 | 50 | 1086.7 |
| 20260504234956 | 84 | 288 | 3.5 | 8.7 | 0.00 | 0.00 | 0.00 | 50 | 1086.7 |
| 20260504234453 | 84 | 223 | 5.2 | 7.8 | 0.00 | 0.00 | 0.00 | 50 | 1086.9 |
| 20260504233949 | 84 | 158 | 3.5 | 5.2 | 0.00 | 0.00 | 0.00 | 49 | 1086.5 |
| 20260504233445 | 84 | 217 | 5.2 | 7.8 | 0.00 | 0.00 | 0.00 | 48 | 1086.6 |
| 20260504232943 | 84 | 199 | 3.5 | 5.2 | 0.00 | 0.00 | 0.00 | 48 | 1086.9 |
| 20260504232440 | 84 | 217 | 6.1 | 7.8 | 0.00 | 0.00 | 0.00 | 48 | 1086.7 |
| 20260504231937 | 85 | 262 | 5.2 | 7.8 | 0.00 | 0.00 | 0.00 | 48 | 1086.7 |
| 20260504231433 | 84 | 194 | 4.3 | 7.0 | 0.00 | 0.00 | 0.00 | 48 | 1086.6 |
| 20260504230929 | 85 | 142 | 3.5 | 6.1 | 0.00 | 0.00 | 0.00 | 47 | 1086.8 |
| 20260504230426 | 85 | 167 | 6.1 | 8.7 | 0.00 | 0.00 | 0.00 | 48 | 1086.7 |
| 20260504225926 | 85 | 172 | 7.0 | 8.7 | 0.00 | 0.00 | 0.00 | 48 | 1086.6 |
| 20260504225422 | 85 | 178 | 3.5 | 6.1 | 0.00 | 0.00 | 0.00 | 47 | 1086.9 |
| 20260504224919 | 86 | 274 | 5.2 | 7.8 | 0.00 | 0.00 | 0.00 | 47 | 1086.8 |
| 20260504224415 | 86 | 269 | 3.5 | 3.5 | 0.00 | 0.00 | 0.00 | 46 | 1086.8 |
| 20260504223913 | 84 | 172 | 5.2 | 7.8 | 0.00 | 0.00 | 0.00 | 46 | 1086.8 |
| 20260504223408 | 85 | 232 | 3.5 | 5.2 | 0.00 | 0.00 | 0.00 | 46 | 1087.1 |
| 20260504222904 | 86 | 171 | 4.3 | 7.8 | 0.00 | 0.00 | 0.00 | 46 | 1086.8 |
| 20260504222401 | 86 | 240 | 5.2 | 13.0 | 0.00 | 0.00 | 0.00 | 46 | 1086.9 |
| 20260504221900 | 86 | 179 | 3.5 | 7.0 | 0.00 | 0.00 | 0.00 | 46 | 1086.8 |
| 20260504221356 | 86 | 231 | 1.7 | 2.6 | 0.00 | 0.00 | 0.00 | 47 | 1087.1 |
| 20260504220854 | 87 | 205 | 5.2 | 8.7 | 0.00 | 0.00 | 0.00 | 45 | 1087.0 |
| 20260504220350 | 86 | 196 | 2.6 | 3.5 | 0.00 | 0.00 | 0.00 | 48 | 1086.9 |
| 20260504215847 | 86 | 227 | 4.3 | 7.0 | 0.00 | 0.00 | 0.00 | 47 | 1087.1 |
| 20260504215343 | 87 | 180 | 7.0 | 11.3 | 0.00 | 0.00 | 0.00 | 46 | 1087.3 |
| 20260504214840 | 87 | 188 | 6.1 | 7.8 | 0.00 | 0.00 | 0.00 | 45 | 1087.3 |
| 20260504214337 | 86 | 227 | 3.5 | 3.5 | 0.00 | 0.00 | 0.00 | 47 | 1087.4 |
| 20260504213833 | 87 | 232 | 1.7 | 1.7 | 0.00 | 0.00 | 0.00 | 44 | 1087.4 |
| 20260504213329 | 86 | 263 | 3.5 | 5.2 | 0.00 | 0.00 | 0.00 | 45 | 1087.5 |
| 20260504212827 | 86 | 261 | 7.0 | 7.8 | 0.00 | 0.00 | 0.00 | 45 | 1087.8 |
| 20260504212323 | 86 | 185 | 2.6 | 3.5 | 0.00 | 0.00 | 0.00 | 47 | 1087.9 |
| 20260504211821 | 87 | 188 | 7.8 | 9.6 | 0.00 | 0.00 | 0.00 | 45 | 1087.8 |
| 20260504211316 | 86 | 190 | 4.3 | 6.1 | 0.00 | 0.00 | 0.00 | 46 | 1088.0 |
| 20260504210814 | 87 | 177 | 5.2 | 6.1 | 0.00 | 0.00 | 0.00 | 46 | 1087.8 |
| 20260504210311 | 86 | 146 | 6.1 | 8.7 | 0.00 | 0.00 | 0.00 | 46 | 1088.1 |
| 20260504205808 | 86 | 246 | 3.5 | 6.1 | 0.00 | 0.00 | 0.00 | 46 | 1088.3 |
| 20260504205306 | 86 | 231 | 7.8 | 11.3 | 0.00 | 0.00 | 0.00 | 46 | 1088.6 |
| 20260504204804 | 86 | 268 | 2.6 | 5.2 | 0.00 | 0.00 | 0.00 | 48 | 1088.4 |
| 20260504204302 | 86 | 185 | 4.3 | 7.8 | 0.00 | 0.00 | 0.00 | 48 | 1088.4 |
| 20260504203801 | 86 | 147 | 1.7 | 3.5 | 0.00 | 0.00 | 0.00 | 47 | 1088.3 |
| 20260504203258 | 85 | 245 | 1.7 | 2.6 | 0.00 | 0.00 | 0.00 | 49 | 1088.4 |
| 20260504202758 | 85 | 199 | 6.1 | 8.7 | 0.00 | 0.00 | 0.00 | 47 | 1088.6 |
| 20260504202256 | 84 | 238 | 4.3 | 6.1 | 0.00 | 0.00 | 0.00 | 49 | 1088.6 |
| 20260504201752 | 84 | 192 | 3.5 | 6.1 | 0.00 | 0.00 | 0.00 | 50 | 1088.7 |
| 20260504201250 | 84 | 163 | 4.3 | 7.0 | 0.00 | 0.00 | 0.00 | 50 | 1088.7 |